Theta_e
279 279 279 279 279 279 279 279 279 278 278 279 279 279 279 279 279 279 279 279 279 279 279 279 280 280 280 280 280 281 281 282 282 283 283 283 283 283 284 284 284 285 285 286 286 286 287 287 287 287 288 289 289 289 290 290 291 291 291 292 293 293 293 294 294 295 295 296 297 298 300 303 305 307 310 311 312 313 313 313 313 313 314 315 316 318
279 279 279 279 279 279 279 279 279 279 279 279 279 279 279 279 279 279 279 279 279 279 279 280 280 280 280 280 280 281 281 282 282 282 282 283 283 283 283 284 284 285 285 285 286 286 286 286 286 287 288 288 289 289 290 290 290 291 291 292 292 292 293 293 294 294 295 296 296 297 299 301 303 305 307 309 310 311 311 311 311 312 312 314 315 316
279 279 279 279 279 279 279 279 279 279 279 279 279 279 279 279 279 279 279 279 279 280 280 280 280 280 280 280 280 281 281 282 282 282 282 282 283 283 283 284 284 284 285 285 285 285 285 286 286 287 288 288 289 289 289 290 290 291 291 292 292 293 293 294 295 295 295 296 296 297 299 300 302 303 305 306 307 308 308 309 310 311 311 312 314 315
280 280 280 280 280 280 280 280 279 279 279 279 280 280 280 280 280 280 280 280 280 280 280 280 280 280 280 280 281 281 281 281 282 282 282 282 282 283 283 283 284 284 284 284 284 285 285 286 286 287 287 288 288 289 289 289 290 290 291 292 293 294 295 295 295 295 296 296 296 297 298 300 301 302 304 305 305 306 307 308 309 310 311 311 313 314
280 280 280 280 280 280 280 280 280 280 280 280 280 280 280 280 280 280 280 280 280 280 280 280 280 280 281 281 281 281 281 281 281 281 282 282 282 282 283 283 283 283 283 284 284 284 285 285 286 287 287 288 288 289 289 289 290 291 292 293 293 293 294 294 294 295 295 296 296 297 298 299 300 302 303 304 304 305 306 307 308 309 310 310 311 313
280 280 280 280 280 280 280 280 280 280 280 280 280 280 280 280 280 280 280 280 280 281 281 281 281 281 281 281 281 281 281 281 281 281 281 281 281 282 282 282 282 283 283 283 284 284 285 285 286 286 287 288 288 289 289 290 291 292 292 292 292 293 293 293 294 294 295 295 296 297 298 299 300 301 302 303 304 304 305 306 307 308 308 309 310 312
280 280 280 280 280 280 280 280 280 280 280 280 280 280 281 281 281 281 281 281 281 281 281 281 281 281 281 281 280 280 280 280 280 280 281 281 281 281 281 282 282 282 283 283 283 284 284 285 286 286 287 288 288 289 290 290 291 291 291 291 291 292 292 293 293 293 294 294 295 296 298 299 300 301 301 302 303 303 304 305 306 306 307 308 309 310
280 280 281 281 281 281 281 281 281 281 281 281 281 281 281 281 281 281 281 281 281 281 281 281 281 281 281 280 280 280 280 280 280 280 280 280 280 281 281 281 282 282 282 283 283 284 284 285 285 286 287 288 289 289 290 290 290 290 290 290 291 291 292 292 292 293 293 294 294 295 297 298 300 300 301 301 302 302 303 304 305 306 307 307 308 309
280 281 281 281 281 281 281 281 281 281 281 281 281 281 281 281 281 281 281 281 281 281 281 281 281 281 280 280 280 280 280 280 280 280 280 280 280 281 281 281 281 282 282 282 283 283 284 285 285 286 287 288 288 288 288 289 289 289 289 289 290 290 291 291 292 292 293 293 294 295 296 297 299 300 300 301 301 302 303 303 304 305 306 306 307 308
280 280 280 281 281 281 281 281 281 281 281 281 281 281 281 281 281 281 281 281 281 281 281 281 281 281 280 280 280 280 280 280 280 280 280 280 280 281 281 281 281 281 281 282 282 283 283 284 285 285 286 286 286 287 287 287 288 288 288 289 289 290 290 291 291 292 292 292 293 294 295 296 298 299 300 300 301 301 302 303 303 304 305 306 306 307
281 281 281 281 281 281 281 281 281 281 281 281 281 281 281 281 281 282 282 282 282 281 281 281 281 281 281 281 280 280 280 280 280 280 280 280 280 280 280 280 280 281 281 281 281 282 282 283 283 284 284 285 285 286 286 286 287 287 287 288 288 289 289 290 291 291 292 292 293 294 295 296 297 298 299 300 300 301 301 302 302 303 304 305 306 306
281 281 281 281 281 281 281 281 281 281 282 282 282 282 282 282 282 282 282 282 282 281 281 281 281 281 281 281 281 280 280 280 280 280 280 280 280 280 280 280 280 280 280 281 281 281 282 282 283 283 283 284 284 285 285 286 286 286 287 287 287 288 289 289 290 291 291 292 292 293 294 295 296 297 298 299 300 300 301 301 302 302 303 304 305 306
281 281 282 282 282 282 282 282 282 283 283 283 283 283 282 282 282 282 282 282 282 282 282 282 281 281 281 281 280 280 280 280 280 280 280 280 280 280 280 280 280 280 280 280 281 281 281 282 282 282 283 283 284 284 284 285 285 285 285 286 286 287 288 288 289 290 290 291 292 293 294 295 296 297 298 298 299 300 300 301 301 302 303 304 305 306
282 283 283 283 283 283 283 283 283 283 283 283 282 282 282 282 282 282 282 282 282 282 282 282 281 281 281 280 280 280 280 280 280 280 280 279 279 280 280 280 280 280 280 280 280 281 281 281 282 282 282 283 283 283 283 284 284 284 284 285 286 286 287 288 289 289 290 290 291 292 293 294 295 296 297 298 298 299 300 300 301 301 302 303 304 305
285 285 285 285 285 284 284 284 283 283 283 282 282 282 282 282 282 282 282 282 282 282 282 281 281 281 280 280 280 280 280 280 280 280 280 280 280 280 280 280 280 280 280 280 280 281 281 281 281 282 282 282 282 282 283 283 284 284 285 286 286 287 287 288 288 289 289 290 291 291 292 293 294 295 296 297 298 298 299 300 300 301 301 302 303 304
285 285 285 285 284 284 284 283 283 283 282 282 282 282 282 282 282 282 282 282 282 282 281 281 281 281 280 280 280 280 280 280 280 280 280 280 280 280 280 280 280 280 280 280 281 281 281 281 281 282 282 282 282 282 283 284 284 285 286 286 287 287 288 288 289 289 289 290 290 291 292 293 294 295 295 296 297 298 298 299 300 300 301 302 303 304
285 284 284 284 284 284 283 283 283 282 282 282 282 282 282 282 282 282 282 282 282 281 281 281 281 281 281 280 280 280 280 280 280 280 280 280 280 280 280 280 280 280 280 281 281 281 281 281 281 281 282 282 282 282 283 284 285 285 286 287 287 288 288 288 289 289 290 290 290 291 292 292 293 294 295 296 296 297 298 299 299 300 300 301 302 303
285 284 284 284 284 283 283 283 282 282 282 282 282 282 282 282 282 282 282 282 281 281 281 281 281 281 281 281 280 280 280 280 280 280 280 280 280 280 280 280 280 280 281 281 281 281 281 281 281 282 282 282 282 283 284 284 285 285 286 287 287 288 288 289 289 289 290 290 291 291 291 292 293 293 294 295 296 297 297 298 299 299 300 301 301 302
284 284 284 283 283 283 283 282 282 282 282 282 282 282 282 282 281 281 281 281 281 281 281 281 281 281 281 281 280 280 280 280 280 280 280 280 280 280 280 280 280 281 281 281 281 281 281 281 281 282 282 282 283 283 283 284 284 285 286 286 287 287 288 288 289 290 290 291 291 291 292 292 292 293 293 294 295 296 297 297 298 299 299 300 301 302
284 284 283 283 283 282 282 282 282 282 282 282 281 281 281 281 281 281 281 281 281 281 281 281 281 281 281 281 281 281 280 280 280 280 280 281 280 280 280 280 281 281 281 281 281 281 281 281 281 282 282 282 282 283 283 284 284 285 285 286 286 287 288 288 289 290 290 291 291 292 292 292 293 293 293 294 295 295 296 297 298 298 299 300 301 301
283 283 283 282 282 282 282 282 282 282 281 281 281 281 281 281 281 281 281 281 281 281 281 281 281 281 281 281 281 281 281 281 281 281 281 280 280 280 280 280 281 281 281 281 281 281 281 282 282 282 282 282 282 283 283 284 284 285 285 286 286 287 287 288 288 289 290 290 291 292 292 293 293 293 293 294 294 295 296 296 297 298 299 300 300 301
282 282 282 282 282 282 282 282 282 281 281 281 281 281 281 281 281 281 281 281 281 281 281 281 281 281 281 281 281 281 281 281 281 280 280 280 280 280 280 280 281 281 281 281 281 281 282 282 282 282 282 282 282 283 283 283 284 284 285 285 286 286 287 288 288 289 289 290 291 291 292 293 293 294 294 294 295 295 295 296 297 298 298 299 300 301
282 282 282 282 282 282 282 282 281 281 281 281 281 281 282 282 282 281 281 281 281 281 281 281 281 281 281 281 281 281 280 280 280 280 280 281 281 280 280 280 281 281 281 281 281 281 282 282 282 282 282 282 282 282 282 283 283 284 284 285 286 286 287 287 288 288 289 289 290 291 291 292 293 294 294 294 295 295 296 296 297 297 298 299 300 301
283 283 283 282 282 282 282 281 281 281 281 282 282 282 282 282 282 281 281 281 281 281 281 281 281 281 281 281 281 281 281 281 280 280 281 281 281 281 281 281 281 281 281 281 281 281 282 282 281 281 281 281 282 282 282 283 283 284 284 285 286 286 287 288 288 289 289 289 290 290 291 292 293 293 294 294 295 295 296 296 297 297 298 299 300 301
283 283 283 282 282 281 281 281 281 281 281 281 281 281 281 281 281 281 281 281 281 281 281 281 281 281 281 281 281 281 281 281 281 281 281 281 281 281 281 281 281 281 281 281 281 281 281 281 281 281 281 281 281 282 282 283 283 284 285 285 286 287 287 288 288 289 289 290 290 290 291 291 292 293 294 294 295 295 296 296 297 298 298 299 300 301
283 282 282 282 281 281 281 281 281 281 281 281 281 281 281 281 281 281 280 281 281 281 281 281 281 281 280 280 280 280 280 280 280 280 281 281 281 281 281 281 281 281 281 281 281 281 281 281 281 281 281 281 282 282 283 283 284 284 285 285 286 286 287 287 288 288 289 289 290 290 291 291 292 292 293 294 295 295 296 297 297 298 298 299 300 301
282 282 281 281 281 280 280 280 280 280 280 280 280 280 280 280 280 280 280 280 280 280 280 281 281 280 280 280 280 280 279 280 280 280 280 280 281 281 281 281 281 281 281 281 280 280 280 280 281 281 281 282 282 283 283 283 284 284 284 285 285 286 286 287 288 288 289 289 290 290 291 291 292 292 293 293 294 295 296 296 297 298 298 299 300 300
281 281 280 280 280 280 280 279 279 279 279 279 279 279 280 280 280 280 280 280 280 280 280 280 280 280 280 280 280 280 279 279 279 279 280 280 280 280 280 280 280 280 280 280 280 280 280 280 281 281 282 282 282 283 283 283 283 284 284 285 285 286 287 288 288 289 289 290 290 290 291 291 292 292 293 293 294 294 295 296 297 297 298 299 300 301
280 280 280 279 279 279 279 279 278 278 278 278 279 279 279 279 279 280 279 279 279 279 279 279 279 280 280 280 279 279 279 279 279 279 279 279 279 279 280 280 280 280 280 280 280 280 281 281 281 281 282 282 282 282 283 283 283 284 284 285 286 286 287 288 288 289 289 290 290 291 291 292 292 292 293 293 294 294 295 296 296 297 298 299 300 301
280 279 279 279 279 279 278 278 278 278 278 278 278 278 278 278 278 278 278 278 278 278 278 278 279 279 279 279 279 279 279 279 279 279 279 279 279 279 279 279 279 280 280 280 281 281 281 281 281 281 282 282 282 282 283 283 284 284 284 284 285 285 286 286 287 287 288 289 289 290 291 292 292 292 293 293 294 294 295 295 296 297 298 299 300 301
280 279 279 279 279 278 278 278 277 277 277 278 278 278 278 278 278 278 278 278 278 278 278 278 279 279 279 279 279 279 279 279 279 279 279 279 279 279 279 279 280 280 280 280 281 281 281 281 281 281 282 282 282 282 283 283 283 283 283 284 284 284 285 285 286 286 287 288 289 289 290 291 292 292 293 293 294 294 295 295 296 297 298 299 300 301
280 279 279 279 279 278 278 278 277 277 277 277 277 277 277 277 278 278 278 278 278 278 278 278 279 279 279 279 279 279 279 279 279 278 278 279 279 279 279 280 280 280 280 280 280 281 281 281 281 281 281 282 282 282 282 282 283 283 283 283 284 284 285 285 286 286 287 288 289 289 290 291 291 292 293 294 294 295 295 296 296 297 298 299 300 301
280 280 279 279 279 278 278 278 277 277 277 277 277 277 277 277 278 278 278 278 278 278 278 279 279 279 279 279 279 279 279 278 278 278 278 279 279 279 279 279 279 279 280 280 280 280 280 281 281 281 281 281 281 282 282 282 283 283 283 284 284 284 285 285 286 287 287 288 289 290 290 291 291 292 293 294 294 295 295 296 296 297 298 299 300 301
280 280 279 279 279 278 278 278 278 277 277 277 277 277 277 277 278 278 278 278 278 278 278 278 278 279 279 279 279 279 278 278 278 278 278 278 279 279 279 279 279 279 279 280 280 280 280 280 281 281 281 281 282 282 282 282 283 283 283 284 284 285 285 286 286 287 288 288 289 290 290 291 292 292 293 294 294 295 296 296 297 297 298 299 300 301
280 280 280 279 279 279 278 278 278 278 277 277 277 277 277 277 277 277 277 277 278 278 278 278 278 278 279 279 279 279 279 279 279 279 279 279 279 279 279 279 279 279 279 280 280 280 280 281 281 281 281 281 282 282 282 283 283 283 283 284 284 285 285 285 286 287 287 288 289 290 290 291 292 293 293 294 295 295 296 296 297 297 298 299 299 300
280 280 280 279 279 279 278 278 278 278 277 277 277 277 277 277 277 277 277 277 277 277 277 278 278 278 278 278 279 279 279 279 279 279 279 279 279 279 279 279 279 279 280 280 280 280 281 281 281 281 281 282 282 282 283 283 283 283 284 284 284 285 285 285 286 286 287 287 288 289 290 291 292 293 294 295 295 295 296 297 297 298 298 299 299 300
280 280 280 280 279 279 279 278 278 278 277 277 277 277 277 277 277 277 277 277 277 277 277 277 278 278 278 278 278 279 279 279 279 279 279 279 279 279 279 279 279 279 279 280 280 280 280 281 282 282 282 282 282 283 283 283 283 283 284 284 284 284 285 285 285 286 286 287 287 288 288 290 291 293 294 295 296 296 296 297 297 298 298 299 299 300
281 280 280 280 279 279 279 278 278 278 277 277 277 276 277 277 277 277 277 277 277 277 277 277 277 278 278 278 278 278 278 278 279 279 279 279 279 279 279 279 279 279 279 279 280 280 280 281 281 282 282 282 282 282 282 283 283 283 284 284 284 284 284 285 285 285 286 286 287 287 288 288 290 292 294 295 296 297 297 297 298 298 298 299 299 300
281 281 280 280 280 279 279 278 278 277 277 277 277 276 276 277 277 277 277 277 277 277 277 277 277 278 278 278 278 278 278 279 279 279 279 279 279 279 279 279 279 279 279 279 279 280 280 280 281 281 282 282 282 282 282 282 283 283 283 283 284 284 284 285 285 285 286 286 287 287 288 289 290 292 293 295 297 297 298 298 298 299 299 299 300 300
281 281 280 280 280 279 279 278 278 277 277 277 277 276 276 276 276 277 277 277 277 277 277 277 277 278 278 278 278 278 279 279 279 279 279 279 279 279 279 279 279 279 279 279 279 280 280 280 280 281 281 281 282 282 282 282 282 282 283 283 284 284 285 285 285 286 286 287 287 288 289 290 291 292 294 295 297 298 299 299 299 299 300 300 300 301
281 281 280 280 279 279 278 278 277 277 277 277 277 276 276 276 276 277 277 277 277 277 277 278 278 278 278 278 278 279 279 279 279 279 279 279 279 279 279 279 279 279 280 280 280 280 280 280 280 280 281 281 281 281 281 282 282 282 283 283 283 284 284 285 285 286 286 287 287 288 288 289 290 292 294 295 297 298 299 300 300 300 300 301 301 301
281 281 280 280 279 279 278 278 277 277 277 277 276 276 276 276 276 277 277 277 277 277 278 278 278 278 278 279 279 279 279 279 279 279 279 279 279 279 279 280 280 280 280 280 280 280 280 280 280 281 281 281 281 281 281 282 282 282 282 283 283 284 284 284 285 286 286 287 287 288 288 289 290 291 293 294 297 299 300 300 301 301 301 301 301 302
281 281 280 280 279 279 278 278 277 277 277 276 276 276 276 276 276 277 277 277 277 278 278 278 278 278 278 278 279 279 279 279 279 279 279 279 279 279 279 280 280 280 280 280 280 280 280 280 281 281 281 281 281 281 282 282 282 282 282 283 283 283 284 285 285 286 287 287 288 288 289 290 291 292 293 294 296 298 300 301 301 301 301 302 302 302
281 280 280 280 279 279 278 277 277 277 276 276 276 276 276 276 276 277 277 277 277 278 278 278 278 278 278 278 278 279 279 279 279 279 279 279 279 279 280 280 280 280 280 280 280 281 281 281 281 281 281 281 281 281 282 282 282 282 282 283 283 283 284 284 285 285 286 287 287 288 289 290 291 292 293 294 296 298 300 301 302 302 302 302 302 302
281 280 280 280 279 279 278 278 277 277 276 276 276 276 276 276 276 276 277 277 277 277 278 278 278 278 278 278 278 279 279 279 279 279 279 279 280 280 280 280 280 280 280 280 281 281 281 281 281 281 281 282 282 282 282 282 282 282 283 283 283 283 284 284 284 285 286 286 287 287 288 288 289 290 292 294 296 298 300 301 302 302 302 302 302 302
281 281 280 280 279 279 278 278 277 277 276 276 276 276 276 276 276 276 276 277 277 277 277 277 278 278 278 278 278 278 279 279 279 279 280 280 280 280 281 281 281 281 281 281 281 281 281 281 282 282 282 282 282 282 282 282 282 283 283 283 283 283 284 284 284 285 285 286 286 287 287 288 288 289 290 292 294 297 299 301 302 303 302 302 302 302
282 281 281 280 279 279 278 278 277 277 276 276 276 276 276 276 276 276 276 277 277 277 277 277 278 278 278 278 278 278 278 279 279 279 280 280 280 281 281 281 281 282 282 282 282 282 281 282 282 282 282 282 283 283 283 283 283 283 283 283 283 284 284 284 284 285 285 285 286 286 287 288 288 289 290 292 293 295 298 300 302 303 303 302 302 302
282 281 281 280 279 279 278 278 277 277 277 276 276 276 276 276 276 276 276 276 276 277 277 277 277 278 278 278 278 278 278 279 279 279 279 280 280 281 281 281 281 282 282 282 282 282 282 282 282 282 282 283 283 283 283 283 283 283 284 284 284 284 284 284 285 285 285 286 286 286 287 288 288 289 291 292 293 295 297 299 302 303 304 303 303 303
281 281 281 280 279 279 278 278 277 277 277 276 276 276 276 276 276 276 276 276 276 276 277 277 277 278 278 278 278 278 278 278 279 279 279 280 280 280 281 281 281 282 282 282 282 283 283 283 283 283 283 283 283 283 283 283 283 284 284 284 284 284 284 285 285 285 285 286 286 287 287 287 288 289 290 292 294 295 297 299 302 304 304 304 303 303
281 281 281 280 280 279 279 278 278 277 277 276 276 276 276 276 276 276 276 276 276 276 277 277 277 277 278 278 278 278 278 278 279 279 279 279 280 280 280 281 281 281 282 282 282 283 283 283 283 283 283 283 283 283 283 283 284 284 284 284 284 284 285 285 285 285 286 286 286 287 287 287 288 288 290 291 293 295 296 299 301 304 305 304 304 303
282 281 281 280 280 279 279 278 278 277 277 277 276 276 276 276 275 275 276 276 276 276 277 277 277 277 277 278 278 278 278 278 279 279 279 279 279 279 280 280 281 281 282 282 282 283 283 284 284 284 284 284 284 284 284 284 284 284 284 284 284 285 285 285 285 286 286 286 287 287 287 288 288 289 290 291 293 294 296 298 301 304 306 305 304 304
Wind_Speed
28 29 29 28 29 29 30 30 29 29 30 30 29 29 29 28 28 28 29 29 29 29 30 30 31 32 33 34 35 36 36 35 34 33 32 32 31 30 30 29 29 29 29 28 28 29 29 30 31 31 32 33 33 33 31 29 28 27 27 27 28 28 28 28 28 28 28 28 28 28 27 21 15 8 5 11 12 11 9 7 5 4 5 7 10 10
27 28 28 29 29 29 30 30 29 28 29 30 30 30 29 29 29 29 29 29 29 29 29 30 30 31 32 33 34 35 35 36 35 34 33 32 31 30 29 29 28 28 28 28 28 28 28 29 30 30 31 32 32 32 31 30 28 26 26 26 26 26 27 27 27 27 28 28 29 29 28 24 18 12 7 2 4 6 5 3 2 2 4 5 8 10
27 27 28 29 28 28 29 29 29 28 28 30 30 30 30 31 30 30 29 29 28 28 28 28 29 30 31 32 33 34 34 35 35 35 34 32 31 30 29 29 28 27 27 27 27 27 27 28 29 29 30 30 31 31 31 29 28 26 25 25 25 25 25 24 24 25 26 26 28 29 28 25 20 15 10 7 4 2 1 1 1 1 1 2 5 7
28 27 29 29 28 28 29 29 28 28 28 29 29 30 30 30 30 29 29 28 28 28 28 28 28 29 29 30 31 32 33 34 35 35 34 33 31 30 29 28 27 27 26 26 26 26 26 26 27 28 29 29 30 30 30 29 27 26 25 25 25 24 23 21 21 22 22 24 26 28 27 25 21 16 12 8 6 4 3 2 1 1 2 2 2 4
29 28 29 28 28 28 29 28 27 27 27 28 29 29 29 29 28 28 28 28 28 28 28 27 27 28 28 28 29 30 32 34 35 35 35 33 32 30 29 28 27 26 25 25 25 25 25 25 26 27 27 28 28 29 29 28 27 26 25 25 24 23 22 20 20 20 21 22 25 27 27 24 21 17 12 9 7 5 4 3 2 2 3 3 2 2
30 29 29 28 28 28 28 27 27 26 26 27 27 27 27 27 26 26 26 26 26 26 26 26 26 27 27 28 29 30 32 34 35 35 35 33 31 29 27 26 25 25 24 24 24 24 24 24 25 26 26 27 27 27 27 28 27 26 25 23 23 23 22 21 21 21 21 22 25 27 26 23 20 16 12 10 7 6 5 4 4 4 4 4 3 2
30 30 29 28 28 28 28 28 26 25 25 25 25 26 25 25 25 25 25 25 25 25 25 25 26 26 26 27 28 30 31 32 33 33 32 31 29 27 25 24 24 23 23 23 23 23 23 24 24 25 25 25 25 26 26 27 27 26 24 23 22 22 22 22 22 21 21 22 25 27 26 23 19 15 13 10 9 7 6 5 5 5 5 5 5 4
30 30 29 29 29 29 29 28 26 25 24 24 24 25 25 24 24 25 25 25 25 24 24 23 24 25 25 26 27 27 28 28 28 28 28 27 26 25 24 23 23 23 24 23 23 22 22 23 23 23 24 24 24 25 25 26 26 26 25 23 22 22 23 23 22 22 22 23 25 26 26 22 18 15 13 11 10 9 7 6 6 6 6 6 6 6
29 29 30 30 29 28 28 27 27 25 24 24 24 24 24 24 24 24 24 24 24 23 22 22 23 24 25 25 24 24 25 25 26 26 26 26 26 25 25 24 24 24 24 23 22 21 21 21 22 22 23 23 23 24 24 25 25 26 25 24 23 22 23 23 23 22 22 23 24 26 26 23 19 16 14 13 12 10 9 8 7 7 7 7 7 7
27 27 28 29 29 27 24 25 26 25 24 24 24 24 24 23 22 23 23 23 23 22 21 22 22 23 24 24 24 24 24 25 26 26 26 27 27 27 27 26 25 24 23 22 21 20 20 20 21 21 22 22 22 22 23 24 25 25 25 24 23 22 22 23 23 23 22 22 23 25 25 24 21 18 16 14 13 12 11 10 9 8 8 7 8 8
25 25 26 25 25 24 22 23 23 23 22 22 22 22 21 21 20 20 20 22 22 21 21 21 21 21 22 23 23 24 24 24 25 25 25 26 26 27 26 25 24 22 21 21 20 19 19 20 20 20 21 21 21 21 22 22 23 24 25 25 24 23 22 23 23 23 22 22 23 24 25 25 23 20 18 16 14 13 12 11 10 10 9 8 8 8
22 22 22 22 22 22 21 21 21 21 19 18 18 18 20 21 21 21 21 20 21 21 20 20 20 20 20 21 23 24 24 23 24 24 24 24 24 23 23 21 20 19 18 18 17 17 17 18 19 20 20 20 19 19 20 20 21 23 24 24 24 23 23 23 23 23 22 22 23 24 25 25 24 21 19 17 16 14 14 13 12 11 10 9 9 9
21 20 20 20 20 19 19 18 17 17 17 17 17 18 20 23 24 23 22 22 22 22 21 21 21 21 22 22 23 23 23 22 23 23 23 22 22 21 20 19 18 17 16 16 15 15 16 16 18 19 19 18 18 18 18 18 19 21 22 23 24 23 23 23 23 22 22 22 23 24 25 26 25 22 20 18 17 16 15 15 14 13 12 11 11 10
18 17 17 17 17 18 17 17 17 18 20 21 21 22 23 24 24 23 22 23 23 23 22 21 22 22 23 23 22 21 21 21 21 22 21 21 20 20 19 19 19 18 17 16 16 15 15 15 16 17 18 18 18 17 17 17 17 18 20 22 23 23 23 22 22 22 22 22 23 24 26 26 25 23 21 19 18 17 16 16 15 15 14 13 12 11
16 17 16 16 17 19 20 21 21 21 22 23 23 24 25 25 25 24 22 22 22 23 22 22 22 23 23 22 20 19 19 19 19 20 20 20 20 19 18 19 19 19 18 17 16 16 15 15 16 17 18 18 18 17 17 16 16 17 18 19 21 21 21 21 21 21 21 22 23 25 26 26 25 23 21 19 18 18 17 17 17 16 16 15 14 13
20 19 17 16 18 21 23 22 22 21 22 23 23 23 23 24 24 23 22 21 22 21 20 19 18 18 19 20 19 17 16 17 18 18 19 20 20 19 18 18 19 20 19 18 17 16 15 14 15 16 17 18 18 18 17 17 16 16 17 18 19 19 20 20 20 20 21 22 24 25 26 26 24 22 21 20 19 19 18 18 18 18 17 16 15 14
20 19 19 18 19 21 24 23 22 21 22 23 23 23 23 23 22 21 20 20 19 18 17 15 10 7 10 16 17 15 14 15 16 18 19 20 20 19 18 18 19 20 20 19 18 17 16 15 15 15 16 18 19 19 19 18 17 17 16 17 17 18 18 19 19 20 21 22 24 25 25 25 23 22 20 20 20 20 19 19 19 19 18 18 17 16
20 20 20 19 20 22 23 23 23 23 23 22 22 22 22 22 21 20 20 20 19 17 16 16 12 7 5 8 13 15 14 14 16 18 19 20 21 20 19 18 19 21 21 21 20 18 17 16 15 16 17 19 20 20 20 20 19 18 17 17 17 17 18 18 19 20 21 22 23 23 23 23 22 21 20 20 20 20 20 20 20 20 20 19 18 17
22 22 21 20 21 22 23 23 23 22 21 20 20 21 21 22 22 22 23 22 21 19 18 15 14 13 12 13 16 17 15 15 16 18 19 20 20 20 19 19 19 21 22 22 21 20 18 17 16 16 18 19 20 21 21 21 21 20 18 17 17 17 18 18 19 20 20 21 21 22 21 21 20 20 20 20 21 21 21 22 21 21 21 20 19 18
23 23 22 21 21 22 23 24 24 23 21 21 22 23 23 24 24 24 24 23 22 21 20 17 16 15 16 17 17 16 14 13 14 16 18 19 21 21 20 19 19 20 21 22 21 20 19 18 17 16 17 18 19 20 21 22 22 21 20 19 18 18 18 18 19 20 20 20 20 20 20 19 19 19 20 20 21 21 22 22 22 22 22 21 20 19
22 23 22 22 21 21 22 24 24 23 23 24 25 25 24 24 24 24 24 23 21 20 19 17 16 16 17 17 17 16 15 15 15 17 18 19 21 21 20 19 19 20 21 21 21 20 19 18 17 16 16 17 18 20 21 22 23 23 22 21 20 19 19 19 19 20 20 20 20 20 19 19 19 19 19 20 21 21 22 23 23 23 23 22 21 20
22 22 23 22 22 22 24 24 25 27 27 27 27 26 25 24 23 23 22 20 19 18 18 17 17 18 19 19 19 19 18 17 17 18 17 16 18 21 19 18 17 19 20 21 21 20 19 18 18 17 17 18 19 21 22 23 24 24 23 22 21 20 19 19 19 20 20 20 19 19 19 18 19 19 19 20 21 21 22 23 24 24 24 23 22 21
22 22 23 23 23 23 24 25 27 28 28 27 26 25 23 23 22 20 19 18 17 17 18 18 19 19 19 19 19 18 18 17 18 18 16 11 13 18 18 17 16 18 19 20 20 19 19 19 19 19 19 19 20 21 22 23 23 23 23 22 21 20 20 19 19 19 19 19 19 19 19 19 19 19 20 20 21 21 22 22 24 24 24 24 23 23
22 22 23 23 23 25 26 27 27 27 27 25 24 23 22 21 19 18 16 16 17 17 17 18 18 18 19 19 18 17 17 16 16 16 15 12 13 17 18 17 16 17 19 19 19 19 19 20 21 21 20 20 21 21 21 22 21 21 21 20 20 20 19 19 19 19 19 19 19 19 19 19 20 20 20 20 21 21 21 22 23 24 25 25 24 24
22 23 24 24 25 26 27 28 28 28 27 26 25 23 23 22 21 20 20 19 18 17 17 17 16 16 16 16 16 16 15 14 14 15 15 13 15 18 18 17 16 17 18 19 18 18 19 20 22 22 21 21 21 20 20 19 19 19 19 19 19 19 19 19 19 19 18 19 19 19 20 20 21 21 21 21 21 21 22 22 23 24 25 25 25 24
22 22 23 24 25 27 28 29 29 29 29 27 26 25 24 23 22 21 20 19 17 16 15 13 12 13 15 16 15 15 15 14 14 14 15 13 14 16 18 16 15 16 17 18 18 18 19 20 21 22 21 20 19 18 18 18 18 19 19 19 19 20 19 19 19 19 19 19 19 20 20 21 21 22 22 22 22 22 22 22 23 24 25 25 25 25
21 22 23 24 25 26 26 27 27 27 27 25 24 23 23 22 21 19 17 16 14 13 12 9 8 10 12 12 13 14 14 13 13 13 13 13 14 15 16 16 15 15 17 18 18 18 19 20 21 20 19 19 18 18 18 19 20 20 20 19 19 19 19 19 19 19 19 20 20 21 21 22 22 23 23 23 23 22 22 23 23 24 24 24 24 24
20 21 21 22 23 24 24 25 26 25 25 24 23 22 21 20 18 16 15 14 12 12 11 9 7 7 6 7 10 13 13 13 12 13 13 13 13 14 16 16 15 15 16 17 18 19 19 19 19 18 18 18 18 18 19 19 19 18 17 17 16 16 17 17 18 18 19 19 20 21 22 22 23 23 24 24 24 24 23 23 23 24 24 24 23 23
19 20 21 22 22 23 24 24 24 24 23 22 22 21 20 19 17 16 15 13 12 11 12 11 10 9 7 11 14 15 14 14 14 13 13 12 13 14 16 15 14 14 14 14 15 16 16 16 16 15 16 16 16 16 16 16 15 14 14 14 14 14 15 15 16 17 17 18 19 20 21 22 23 24 25 25 25 25 25 24 24 23 23 23 23 22
19 20 21 22 22 23 23 24 23 23 22 21 21 20 19 18 17 16 15 14 13 12 12 13 13 12 11 11 10 10 11 13 13 12 11 11 11 12 14 13 13 13 11 10 8 8 10 12 12 12 12 13 13 13 13 12 12 13 13 13 14 14 15 15 16 16 17 18 18 19 20 22 23 24 25 26 26 26 26 25 25 24 23 23 23 22
20 20 20 21 22 22 22 22 21 21 21 20 20 19 18 17 16 16 15 15 14 13 13 13 13 13 12 7 4 4 4 9 10 9 9 9 10 11 12 12 12 12 10 8 4 3 5 7 9 10 9 10 11 11 12 12 12 13 13 13 14 15 15 15 15 15 16 17 18 19 20 21 22 23 25 26 27 27 27 27 26 25 24 23 23 22
19 19 19 20 21 21 20 19 19 19 19 19 18 17 17 16 16 16 15 15 15 14 14 14 14 14 13 10 7 6 5 10 11 9 9 9 10 12 12 12 12 12 11 10 8 6 4 3 6 10 10 11 12 12 13 13 13 13 12 12 12 13 14 13 12 12 14 16 17 18 20 21 22 23 24 25 26 27 28 28 27 26 25 24 23 23
19 19 19 20 20 20 19 19 18 18 18 17 17 17 16 16 16 16 16 16 16 16 15 15 14 14 15 15 14 13 14 15 14 12 11 11 11 12 13 13 12 12 12 12 12 11 8 6 9 12 14 13 13 13 13 13 12 12 11 11 11 12 12 11 10 10 11 13 15 17 19 20 22 23 24 25 26 27 28 28 28 28 26 25 24 24
19 19 19 19 19 19 19 18 18 17 17 16 16 17 16 16 16 16 16 16 16 16 16 16 15 15 15 15 15 16 18 18 16 14 13 12 12 12 13 13 13 12 12 11 12 12 11 12 13 12 12 14 13 13 12 12 11 11 11 11 11 11 10 10 9 9 10 10 12 14 17 19 20 22 23 25 26 27 27 28 29 29 28 26 25 24
19 19 19 19 19 19 18 18 18 17 17 16 17 17 16 16 16 16 16 16 16 16 16 17 17 16 16 16 15 16 18 17 16 14 13 13 13 13 14 14 14 13 11 11 11 10 9 12 13 12 11 12 13 13 12 11 10 10 10 10 10 10 10 10 9 9 9 10 11 12 14 17 18 20 22 23 25 26 27 28 29 30 30 29 27 25
18 18 19 18 18 18 18 18 18 18 17 17 17 17 16 16 17 17 17 17 17 17 17 18 18 18 18 18 19 19 19 18 16 14 13 13 14 14 14 15 15 14 12 12 11 10 8 10 12 14 12 10 9 10 11 10 9 9 9 10 10 10 10 10 10 10 10 11 11 12 13 15 17 19 20 22 23 25 27 28 29 30 30 30 29 28
17 17 18 18 18 18 18 18 18 18 17 17 17 17 17 17 18 18 18 19 19 19 19 19 19 20 20 21 22 22 22 21 19 17 17 17 16 16 16 16 17 15 13 13 13 12 10 9 9 10 11 9 7 8 10 10 9 9 9 9 9 10 10 11 11 12 12 12 12 13 14 15 16 18 19 20 21 23 25 27 28 29 30 31 31 30
17 17 17 17 17 17 18 18 18 18 18 18 18 18 18 19 19 19 19 19 19 19 19 19 19 20 21 22 23 25 25 24 24 23 23 22 21 20 19 19 18 18 16 15 14 14 12 8 7 7 6 8 10 11 12 11 10 10 10 10 10 10 11 12 12 12 12 12 12 13 14 15 16 17 18 19 20 21 23 24 26 28 29 30 31 31
16 17 17 17 17 18 18 18 19 19 19 18 18 19 19 19 19 19 19 18 18 18 18 19 19 20 22 23 24 24 25 25 25 26 25 25 25 23 21 20 20 19 19 17 16 16 14 11 8 6 5 7 10 12 13 12 11 11 11 11 11 11 11 11 11 11 11 11 11 11 12 13 15 17 18 19 20 21 22 23 24 25 27 27 28 30
17 17 17 17 17 17 18 18 19 19 19 19 19 18 18 18 18 18 18 17 17 17 18 18 19 20 21 21 22 22 23 24 24 24 24 25 25 24 23 22 21 20 19 18 17 17 17 16 15 14 13 10 9 11 12 13 12 12 11 10 10 9 9 9 9 10 10 11 11 11 11 11 13 15 18 19 21 22 22 22 23 24 24 25 26 27
17 17 18 18 18 18 18 19 19 19 19 19 18 17 17 17 17 17 17 16 16 16 16 16 17 17 18 19 20 21 21 22 22 23 23 24 24 25 24 23 22 20 19 18 18 18 18 18 17 17 17 15 15 14 14 14 14 13 12 11 11 11 11 11 11 11 11 11 11 11 11 11 12 14 16 19 21 21 21 21 22 22 23 24 25 25
17 17 18 18 18 19 19 20 19 19 18 17 17 16 16 16 16 16 16 16 15 15 14 14 14 15 16 16 17 18 19 20 21 22 23 23 24 24 24 23 22 21 20 18 18 19 19 19 19 18 18 17 15 14 14 15 15 14 13 13 13 13 12 12 11 10 10 10 10 10 10 10 11 13 14 17 19 20 20 21 21 21 22 23 24 25
18 18 18 18 18 19 20 19 19 18 17 17 16 16 16 16 16 16 16 16 16 15 15 14 14 15 15 16 16 16 17 18 19 21 22 22 23 24 24 24 23 22 21 19 18 19 19 20 20 20 19 18 16 15 15 15 15 14 14 14 13 11 8 9 8 8 8 9 9 9 9 10 10 12 13 16 18 19 20 21 21 22 22 23 24 24
18 18 18 17 18 18 19 18 18 17 17 17 17 17 16 16 16 16 16 16 16 16 15 15 15 14 14 14 15 15 15 16 17 18 19 20 21 22 23 24 24 24 23 21 19 18 18 19 19 19 19 18 17 17 16 16 15 15 14 14 13 12 10 10 9 9 8 9 9 9 9 9 9 10 12 15 17 18 19 20 22 22 23 23 22 23
17 17 17 17 17 17 18 18 18 18 17 17 17 17 17 16 16 16 16 16 16 16 15 15 14 13 12 12 13 13 13 13 14 15 16 16 17 18 20 21 22 23 23 23 21 19 17 17 18 18 17 17 17 17 17 16 16 15 15 14 14 14 15 14 13 12 11 11 10 10 9 9 9 9 11 13 16 18 19 20 22 23 24 24 23 23
16 16 16 17 17 17 18 18 18 18 18 17 17 17 17 16 16 16 16 16 16 16 16 15 13 11 11 12 13 13 12 12 13 13 13 13 14 15 16 18 20 21 22 23 23 22 21 19 18 17 15 15 16 18 19 17 16 15 15 15 14 14 15 15 14 13 13 12 11 11 10 9 9 10 10 12 15 17 18 19 21 22 24 24 24 24
17 17 17 17 17 17 18 18 17 17 17 18 18 17 17 16 16 16 16 16 16 16 16 15 13 12 12 12 13 12 12 12 12 13 12 12 12 13 14 15 16 18 20 21 22 23 23 23 21 19 16 15 15 17 18 18 17 16 15 14 14 14 14 14 14 13 13 13 12 11 10 9 9 10 10 11 14 16 18 18 19 20 22 24 25 25
17 17 17 17 17 17 18 18 17 17 17 17 17 17 17 16 16 16 16 16 16 16 15 15 13 13 13 13 13 13 13 13 13 13 13 13 12 12 12 13 14 15 17 18 20 21 22 23 23 22 21 18 16 16 17 17 17 16 16 15 14 14 14 14 14 13 13 13 13 12 11 10 9 9 9 10 12 15 17 17 18 20 21 23 24 25
17 17 17 17 17 17 17 18 18 17 17 17 17 17 17 17 16 16 16 16 15 15 15 15 14 14 13 14 14 14 14 13 13 13 12 12 12 12 12 12 12 13 14 15 17 18 20 22 24 25 24 23 21 19 19 18 17 16 16 15 15 14 14 14 14 13 13 13 13 13 12 11 10 9 9 9 11 14 17 17 17 19 21 23 24 25
17 17 17 17 17 17 17 17 17 16 16 17 17 17 18 17 17 16 15 15 15 15 14 15 15 14 14 14 15 14 14 13 13 13 12 12 11 11 12 12 12 11 12 12 13 14 15 17 19 22 25 26 25 23 21 19 18 17 16 16 16 15 15 14 14 13 13 13 13 13 13 12 11 11 10 11 12 14 16 17 17 17 20 23 24 25
17 17 17 17 17 17 17 16 16 16 16 17 17 17 17 17 17 16 16 15 15 15 15 15 15 14 14 15 15 15 15 14 13 13 13 13 12 12 12 12 11 11 10 9 8 8 8 7 9 13 19 24 27 26 24 21 19 17 16 16 16 16 15 15 14 13 13 13 12 12 12 12 12 13 12 12 12 12 14 16 16 16 19 22 24 26
Wind_Direction
279 280 280 279 279 279 278 277 276 276 276 277 278 279 279 279 278 277 276 276 276 277 278 279 279 280 281 282 284 286 287 290 292 293 294 295 296 296 296 295 294 293 293 292 292 292 293 293 292 292 292 292 293 294 295 296 297 298 300 301 302 303 304 305 305 305 305 306 306 306 307 314 325 324 234 209 205 203 204 209 216 213 199 192 190 190
279 279 279 278 277 277 277 276 275 273 274 275 277 278 278 278 278 278 277 276 275 275 276 277 278 279 280 281 283 285 287 290 292 293 295 296 296 296 296 295 294 293 292 292 292 292 292 291 290 290 290 290 291 292 293 294 295 296 297 298 299 300 301 300 300 300 300 301 303 303 304 306 313 323 333 276 212 203 197 196 197 191 184 185 191 192
281 280 280 279 277 276 276 276 275 274 273 275 276 276 277 277 277 277 276 275 275 274 274 275 276 278 279 280 282 284 286 288 291 293 294 295 296 296 295 295 294 293 293 292 292 292 291 289 289 288 288 289 290 290 292 292 293 294 294 295 295 295 294 295 295 296 297 298 299 300 300 301 303 309 322 331 340 358 44 90 123 177 204 208 199 195
281 280 280 280 279 277 275 276 276 275 274 275 275 275 276 276 276 275 274 274 274 274 274 274 275 276 278 279 281 282 285 287 289 292 294 295 296 296 295 295 294 293 292 291 291 290 289 288 287 287 287 287 288 289 289 290 291 291 292 293 294 295 296 297 296 296 296 297 297 296 296 296 297 301 309 320 335 351 5 15 359 304 295 279 222 190
280 279 279 280 281 280 278 277 277 276 276 276 276 276 275 275 274 273 273 273 273 274 274 274 274 275 277 278 279 281 284 287 289 291 293 294 295 295 295 294 293 292 291 291 290 289 288 286 285 285 285 286 286 286 287 287 288 289 290 294 298 302 303 304 302 300 298 296 294 293 293 292 293 296 303 313 325 337 344 340 321 305 299 289 267 204
279 279 279 280 280 281 280 279 278 277 277 277 276 276 275 274 273 272 272 272 273 273 273 274 274 275 276 276 278 280 283 286 288 290 292 293 294 294 293 293 292 291 291 290 290 288 286 285 283 283 283 283 283 283 284 285 285 287 289 295 299 301 301 302 301 299 297 294 292 292 292 291 290 292 298 305 314 321 327 327 320 310 303 295 287 272
279 279 279 279 279 280 280 279 278 277 276 277 277 277 276 274 273 272 272 272 272 273 273 274 275 275 275 275 277 280 283 285 287 289 290 291 292 292 292 292 291 291 291 290 289 288 285 283 281 280 279 279 280 281 282 283 284 286 289 293 295 295 295 296 296 295 292 290 290 291 293 292 291 292 296 301 306 311 316 320 319 314 308 301 295 289
278 279 280 280 280 280 280 279 277 276 275 276 277 278 277 276 275 274 274 273 272 272 272 273 274 275 276 276 277 280 282 285 287 288 290 291 292 292 292 292 292 292 291 290 289 287 284 281 279 278 277 278 279 279 280 281 282 284 287 289 290 290 289 290 291 290 288 286 287 290 293 294 293 293 296 298 300 303 308 311 314 314 312 308 300 293
275 278 279 279 280 281 282 280 278 276 275 273 273 274 275 276 276 276 276 274 272 271 271 271 274 276 277 278 279 281 283 285 286 287 289 290 291 292 293 293 293 292 291 290 288 285 282 279 277 277 277 278 278 278 279 280 282 283 285 287 287 287 286 287 287 287 285 283 285 288 292 294 293 293 294 295 296 297 299 303 306 309 312 310 304 297
270 273 276 277 278 278 278 279 279 277 274 271 268 268 269 271 274 276 277 275 274 273 271 271 273 276 280 282 283 284 285 286 286 286 287 288 289 290 291 292 291 291 290 288 286 283 281 278 277 277 277 278 279 279 280 280 281 281 283 285 285 285 284 284 284 284 283 282 283 286 290 291 291 291 291 292 292 292 294 295 299 302 305 307 305 301
269 270 273 275 276 277 275 275 277 277 273 269 266 265 265 267 271 274 276 277 277 275 273 272 273 275 280 284 287 288 288 287 287 287 287 287 288 289 290 289 289 288 287 285 283 281 278 277 276 276 277 277 278 278 279 278 278 279 281 282 283 282 281 280 281 281 281 281 281 284 286 288 288 288 289 289 289 289 289 289 291 294 297 300 301 300
269 271 274 277 279 280 278 277 276 274 272 270 271 274 276 276 276 275 275 276 277 277 276 275 275 277 280 284 288 289 289 288 287 287 288 288 289 289 290 289 288 287 285 283 280 277 274 274 274 275 276 276 275 275 275 276 276 277 278 279 279 279 277 277 278 279 280 280 280 282 284 285 285 285 285 286 286 285 285 285 286 287 289 292 294 295
267 270 275 278 280 279 278 277 276 277 279 282 285 287 288 287 284 280 277 276 277 278 278 280 281 281 282 284 286 287 287 286 286 286 287 287 288 288 289 289 288 288 286 284 280 276 272 272 273 274 274 274 273 272 272 273 274 274 274 275 275 275 274 274 274 276 277 277 278 280 281 281 281 281 281 282 282 282 281 282 282 282 284 286 289 291
267 272 277 279 280 280 280 282 286 289 291 292 291 290 289 288 286 283 279 277 278 279 280 281 283 284 285 285 284 283 283 283 284 284 284 284 285 286 287 287 287 287 286 284 281 276 273 272 272 273 274 274 273 273 272 273 273 272 271 272 273 273 272 272 272 272 273 274 274 275 276 277 276 277 278 278 279 279 279 279 279 280 281 283 286 289
285 290 291 290 289 290 290 292 293 294 294 293 292 290 289 288 285 282 280 278 279 281 283 283 284 284 284 284 283 281 279 279 281 282 283 283 284 285 286 287 287 287 286 284 281 278 274 271 271 272 274 275 275 275 274 273 271 270 270 270 271 271 271 270 269 269 269 269 269 269 271 271 272 272 274 275 276 276 276 276 276 277 278 280 283 286
298 298 297 295 294 293 292 293 293 293 293 293 292 291 289 288 286 284 281 281 282 284 284 285 284 284 284 283 281 278 276 276 277 279 282 284 285 286 287 287 288 288 287 285 282 280 276 273 271 272 274 275 277 278 277 274 271 269 268 269 269 269 269 268 267 266 264 262 262 263 265 266 267 269 271 272 273 273 273 273 274 275 275 277 280 283
297 296 295 294 292 291 292 292 292 292 293 293 293 291 290 288 287 286 284 283 283 283 282 281 281 281 284 285 282 278 275 274 277 280 283 284 286 287 287 287 288 288 288 286 284 282 279 276 274 274 275 278 281 283 282 279 276 273 270 268 268 268 268 266 265 263 261 258 257 258 259 262 264 266 268 270 271 271 271 271 272 272 273 274 276 279
295 295 294 293 291 292 292 293 293 293 292 292 292 292 291 290 289 288 287 284 282 280 278 278 276 274 277 282 282 280 277 275 278 281 283 284 285 287 287 287 286 286 287 286 285 283 281 278 276 275 277 281 284 286 285 284 282 280 277 274 271 270 268 267 265 264 262 259 258 258 258 260 262 263 265 267 268 268 268 268 268 269 270 272 274 277
295 295 293 292 291 292 292 292 292 292 292 291 292 294 293 292 291 289 286 282 279 276 274 273 272 271 271 275 278 278 277 276 277 279 281 283 284 286 287 286 286 285 285 285 285 285 284 281 278 276 278 282 285 287 287 288 287 285 283 280 276 274 272 269 268 267 266 265 263 262 262 262 263 263 263 264 265 265 265 265 265 266 267 269 271 275
294 293 291 291 291 291 290 290 290 291 291 292 293 293 292 291 289 286 282 278 275 273 271 269 268 268 269 273 275 276 275 273 274 277 279 282 284 286 286 286 285 285 285 285 285 286 286 284 282 280 280 282 285 287 289 289 289 288 287 284 280 277 274 272 270 269 268 268 268 267 266 265 265 264 263 262 263 262 263 262 262 263 264 266 269 271
291 290 289 289 288 288 289 290 291 291 292 293 293 291 288 287 285 282 279 276 274 273 271 270 269 269 272 274 276 277 277 275 274 277 280 283 283 284 284 284 284 284 284 284 285 286 287 286 285 283 282 283 285 287 289 289 289 289 288 286 282 278 275 272 270 268 268 268 268 269 269 268 266 264 262 261 261 260 259 259 260 260 262 264 266 269
285 286 286 285 284 284 286 288 291 292 293 293 290 286 283 281 279 278 278 277 276 275 274 273 273 274 276 276 277 277 276 273 272 275 279 280 280 281 282 282 282 281 282 283 286 287 288 288 287 285 285 285 286 287 287 288 287 287 286 285 282 278 274 271 269 267 266 266 267 267 267 267 266 265 263 261 259 258 258 257 257 258 259 261 263 266
280 281 284 284 284 286 288 291 293 295 294 291 287 283 280 277 276 277 278 279 278 276 275 274 274 274 273 273 273 272 270 266 265 267 271 272 276 279 281 281 280 279 279 282 285 288 289 289 289 288 288 287 287 286 286 286 286 285 284 283 281 277 274 271 269 267 266 265 265 265 265 264 263 263 262 260 258 257 256 255 255 255 257 258 261 263
286 286 288 290 291 293 294 295 296 297 297 296 294 292 289 285 284 284 284 283 280 278 276 275 274 273 271 271 270 268 266 262 260 260 263 267 273 277 280 280 279 278 279 281 285 288 290 290 290 290 290 289 287 286 286 285 284 284 283 282 280 277 275 272 270 268 266 264 263 263 262 261 260 260 259 258 256 255 254 254 253 253 255 256 258 260
293 293 294 295 296 297 298 299 300 301 301 301 300 298 297 295 294 293 292 289 287 283 281 280 278 277 276 276 275 273 271 267 261 259 261 267 274 276 278 278 277 277 279 282 285 288 289 290 290 291 291 290 288 287 285 284 284 283 282 281 280 278 276 274 272 269 266 263 261 260 258 257 257 256 256 255 254 253 252 252 251 251 252 254 256 257
293 293 294 296 298 300 302 303 303 303 303 302 301 300 298 297 295 293 290 287 286 284 284 282 280 280 281 281 279 277 275 271 265 260 261 267 274 277 277 277 277 279 281 284 286 288 288 289 289 290 290 289 288 287 286 285 284 283 282 281 279 278 276 274 272 268 265 262 259 257 255 254 254 254 253 253 252 251 250 249 249 250 251 252 254 256
292 294 296 299 302 304 305 306 306 306 305 304 303 302 301 299 296 292 288 286 286 286 284 281 279 280 281 278 276 276 275 272 267 263 263 268 273 276 277 279 280 282 284 286 286 287 286 285 285 286 286 287 288 288 287 287 286 285 283 281 278 276 274 272 270 267 264 261 258 255 254 252 252 251 251 250 249 248 248 247 247 247 249 251 253 254
295 297 300 303 305 307 308 308 309 309 308 307 304 303 301 299 296 291 288 290 293 293 288 284 283 284 284 282 280 280 278 274 270 267 267 269 271 273 276 279 281 282 284 286 287 286 283 280 279 281 282 284 286 288 289 289 289 287 285 282 278 274 271 269 266 264 263 260 257 255 253 251 250 249 249 248 247 246 245 244 244 244 246 247 249 250
301 304 306 307 308 309 310 309 309 309 308 308 306 305 303 301 297 294 293 297 298 295 287 284 283 283 285 285 284 283 279 274 269 266 265 265 266 269 273 277 278 279 282 285 287 286 281 277 276 277 279 282 284 286 288 291 292 292 289 286 281 276 271 268 265 263 261 259 257 254 252 250 249 247 247 246 245 244 243 242 241 241 242 243 243 245
310 311 311 311 311 311 311 309 308 308 308 308 307 306 304 300 296 293 293 293 290 285 280 279 278 278 280 282 283 280 276 272 267 262 258 258 262 267 271 274 274 275 278 283 288 288 285 282 280 278 278 280 282 284 286 289 291 292 292 290 286 281 275 271 267 264 260 258 256 253 251 249 247 245 244 243 242 242 241 239 238 237 237 237 238 239
314 313 311 310 311 311 310 307 306 307 307 306 305 304 301 297 292 288 286 284 280 276 275 275 276 275 276 276 276 274 273 273 269 261 254 255 261 267 271 272 273 272 272 276 284 301 295 292 289 286 283 283 283 283 283 285 286 287 287 287 286 284 281 276 271 265 260 256 254 252 249 247 246 244 242 241 240 239 238 236 234 233 232 232 233 234
313 311 309 309 310 309 308 306 305 305 305 304 302 300 297 293 289 286 283 280 277 274 273 273 274 273 272 269 267 268 271 274 272 265 257 259 264 268 270 271 272 272 270 268 270 278 291 300 296 293 291 288 286 284 282 281 280 279 280 280 281 282 283 281 276 268 260 255 252 250 248 246 245 243 241 239 238 236 235 233 231 229 228 228 229 229
311 310 309 309 310 309 308 306 305 304 304 303 302 300 298 295 292 290 286 282 279 276 274 273 273 273 272 269 267 267 268 269 269 265 259 259 263 268 270 270 270 271 271 268 266 267 270 275 286 289 289 288 285 283 280 278 275 273 273 273 274 277 280 281 278 270 262 255 251 248 246 245 243 242 240 238 236 235 233 231 229 227 225 225 225 226
309 309 310 311 311 310 309 308 307 307 306 305 306 306 303 300 297 293 290 286 282 278 275 273 273 273 273 272 270 269 268 268 267 263 257 254 258 265 268 269 269 269 270 269 266 265 266 269 275 282 286 286 285 282 279 276 273 270 268 267 269 271 274 276 273 269 264 259 254 249 245 243 242 241 239 237 235 233 231 229 227 225 224 223 222 222
309 310 312 313 313 312 312 311 311 311 311 310 309 309 306 302 298 294 290 286 283 278 274 271 270 269 270 271 271 271 271 270 268 264 256 251 254 260 265 266 266 266 266 267 267 267 268 269 272 276 282 286 286 283 279 275 271 267 265 264 264 266 268 269 269 268 266 262 257 252 246 242 240 238 237 235 233 231 229 228 226 225 223 222 221 220
309 311 313 314 315 315 314 314 314 313 313 312 311 309 306 302 299 296 292 288 285 281 276 272 269 267 265 265 266 268 270 271 271 266 259 253 252 256 262 264 264 264 263 264 265 266 268 272 273 275 277 280 283 284 281 277 272 269 266 264 264 264 264 265 265 266 266 263 259 255 248 242 239 236 235 232 230 228 227 226 226 224 223 222 221 220
310 311 313 315 316 316 316 316 316 315 314 313 312 310 308 304 302 299 295 291 288 284 280 276 273 269 266 264 264 265 268 270 270 267 261 256 253 253 257 261 262 260 258 260 262 264 266 270 273 273 273 271 274 278 281 282 280 275 270 267 265 265 264 263 263 263 263 262 260 256 250 244 239 236 235 233 230 228 227 226 225 224 223 222 222 221
312 313 314 316 318 319 319 318 317 315 314 312 311 310 308 306 303 300 297 293 290 286 282 279 276 272 269 267 266 267 268 269 269 267 264 259 255 252 253 257 258 257 254 255 257 261 263 266 269 269 268 268 269 271 275 279 280 277 275 273 271 268 266 263 262 260 258 258 258 256 253 246 240 237 235 232 229 226 225 225 224 224 223 223 223 222
313 314 316 317 319 320 319 318 316 314 313 311 309 308 307 306 304 302 300 295 291 287 283 280 278 276 274 273 271 270 269 269 268 267 264 261 256 252 250 252 254 255 253 252 252 254 256 258 261 264 266 270 271 271 272 273 274 275 277 280 277 272 266 261 258 255 254 253 254 254 253 247 239 233 231 228 224 222 221 220 220 219 219 219 221 222
314 315 316 317 318 318 317 315 313 312 311 309 308 307 308 308 307 305 301 297 293 289 286 283 280 279 277 276 273 271 270 269 268 267 265 261 257 253 251 250 252 253 253 250 249 248 250 253 256 258 261 264 269 270 271 269 269 271 276 280 278 273 267 262 257 255 253 251 251 252 251 247 238 232 228 225 222 220 218 217 216 215 213 213 214 216
314 314 315 316 317 317 316 314 313 311 311 311 310 309 310 310 309 308 305 301 297 293 290 286 284 281 280 277 276 274 272 270 269 267 265 262 259 256 253 250 250 251 251 249 248 247 247 249 252 255 257 260 263 266 267 266 266 267 269 270 271 272 273 269 264 259 255 253 251 250 250 248 242 235 229 225 223 222 220 217 215 213 211 210 209 209
312 312 312 314 315 316 316 315 314 313 313 313 312 311 310 311 311 310 308 305 302 298 295 291 289 288 287 283 280 278 274 272 271 270 268 266 262 259 255 252 250 250 249 248 247 247 247 247 249 252 254 256 259 262 264 264 264 263 262 262 267 273 276 271 262 254 250 250 249 248 247 246 243 238 234 228 225 224 222 219 216 213 211 210 210 209
308 308 309 311 313 315 316 317 317 317 316 316 315 313 312 312 312 311 308 306 305 302 300 297 295 294 292 290 286 282 278 275 273 273 271 270 266 262 258 254 251 249 247 246 247 249 248 248 248 250 252 253 255 258 261 263 263 261 258 257 260 265 269 267 260 252 247 247 249 249 247 245 243 239 234 228 226 224 222 219 216 214 212 210 209 210
304 305 306 309 313 316 319 320 319 318 317 316 315 315 315 315 315 314 312 309 306 305 303 302 299 295 291 289 288 287 285 281 278 276 274 272 270 266 261 257 253 250 247 245 245 248 250 249 249 248 249 249 251 254 257 260 260 259 257 254 252 252 254 259 261 260 257 255 254 252 252 252 249 242 236 229 230 231 226 221 217 215 213 211 210 209
303 305 308 311 315 318 321 321 320 319 317 316 316 316 317 317 318 317 315 312 309 308 307 305 303 299 295 293 293 292 291 289 285 281 278 275 271 267 263 259 256 252 247 244 243 244 246 248 250 250 249 248 248 250 253 255 258 258 257 254 251 249 250 254 257 258 258 258 257 256 256 260 260 255 246 234 230 231 231 225 219 215 214 212 211 210
307 309 311 313 316 318 319 319 319 319 317 317 316 317 318 319 319 319 316 314 312 311 309 306 302 299 296 297 298 298 296 294 292 289 285 279 276 271 266 261 257 253 249 246 244 243 243 245 248 250 250 249 249 250 250 251 253 255 256 253 251 250 251 251 251 251 252 254 255 255 255 257 257 255 249 239 233 232 233 228 220 214 212 211 211 210
311 311 311 313 315 317 318 319 320 319 318 317 316 317 318 319 320 320 319 317 314 312 310 308 303 298 296 297 298 298 297 296 295 294 291 287 282 277 271 267 262 258 254 250 247 245 244 244 245 246 246 248 251 252 252 250 250 250 251 251 249 248 249 249 248 247 247 248 250 251 251 250 248 247 246 240 234 232 234 232 225 216 211 210 210 210
311 310 311 312 314 316 319 320 321 320 318 316 316 317 318 320 321 321 320 318 316 315 313 312 308 304 300 299 298 297 296 295 295 294 293 291 288 284 279 275 270 266 261 257 253 250 248 247 246 244 243 245 249 253 254 253 250 248 248 248 247 247 248 248 247 245 243 244 244 244 244 242 242 242 244 240 234 230 231 236 230 218 210 209 209 209
311 309 309 312 314 316 318 319 320 320 318 317 316 317 319 320 322 322 320 318 317 316 315 313 311 308 305 303 301 300 298 295 294 293 292 291 290 289 287 283 279 275 269 265 260 258 256 253 250 246 242 241 244 250 253 253 251 249 248 246 245 245 247 247 246 243 240 240 241 240 239 239 240 242 242 239 232 227 226 235 233 222 212 208 207 208
312 311 311 312 313 315 316 318 319 319 318 317 317 318 319 321 322 322 321 320 319 318 316 314 311 309 306 304 303 302 301 298 297 295 293 293 292 292 291 289 285 281 277 272 267 262 258 255 251 247 242 238 238 241 247 250 250 249 247 245 244 243 244 245 244 241 238 238 238 238 236 236 237 237 236 236 233 230 229 233 236 229 214 207 206 208
315 314 314 314 314 314 316 317 317 317 317 318 317 317 318 320 321 322 322 323 322 319 317 314 311 308 305 304 303 303 302 300 299 298 297 296 295 293 291 289 287 285 282 278 272 266 260 256 254 250 244 236 233 232 235 241 244 245 245 244 242 240 240 242 243 240 237 236 235 234 232 231 230 229 227 227 227 228 230 230 235 232 217 207 205 206